Starlink 5716

operational
NORAD ID: 56504 Int'l Des: 2023-065 Owner: SPXS Country: US Constellation: starlink
LEOCIRCULAR

About Starlink 5716

Description loading...

Live Position

Loading 3D Globe...

Upcoming Passes

Altitude History

Altitude vs Time

uPlot chart will show altitude changes over time

Two-Line Element Set

1 56504U 23065B 25259.80186143 -.00000319 00000-0 -85467-5 0 9990
2 56504 43.0035 75.5318 0001199 267.4624 92.6081 15.02533436130469
Epoch: Sep 16, 2025 • Age: 27 hours

Current Status

Altitude 569.2 km
Velocity 7.58 km/s
Sub-Earth Point -37.02°S, 47.42°E
Launch Date May 14, 2023
Age 2.3 years
Type internet

Technical Details

Classification Payload
Mass 305.00 kg
Dry Mass 290.00 kg
Total Mass 305.00 kg
Length 0.20 m
Diameter 2.80 m
Span 9.00 m
Shape Box + pan
Manufacturer SPXS
Bus Type Starlink
Phase Status In Orbit
Owner/State SPXS/US

Large Constellations

Loading constellations...